Temp
10 10 11 13 13 13 13 13 13 13 13 12 12 12 11 11 11 12 12 13 13 13 13 14 14 15 15 11 11 12 14 15 16 16 15 15 15 14 12 11 11 11 9 8 7 6 5
11 10 11 12 13 13 13 13 13 13 13 13 13 12 12 12 12 12 13 13 13 13 13 14 15 15 15 13 12 12 14 15 15 15 14 14 13 12 11 9 10 8 8 8 8 7 7
11 11 11 11 12 13 13 13 13 13 13 13 13 13 12 12 12 12 13 13 13 13 14 14 14 15 10 11 12 13 14 14 14 15 14 14 14 14 11 9 9 10 10 10 9 9 8
12 11 11 11 12 12 13 13 13 13 13 13 13 13 13 13 13 13 13 13 13 14 14 14 14 14 10 12 12 13 14 14 15 15 15 14 15 10 11 10 10 10 10 11 10 9 7
12 12 12 12 12 13 12 12 13 13 13 13 13 13 13 13 13 13 13 13 14 14 14 14 14 13 11 12 12 12 12 12 14 15 15 15 13 10 11 10 9 8 11 10 10 8 7
13 12 12 12 12 13 13 13 13 13 13 13 13 13 13 13 13 13 13 14 14 14 14 14 13 13 10 9 11 11 12 13 12 13 13 11 8 8 8 9 12 11 10 9 9 9 8
13 13 13 13 12 12 12 12 13 13 13 13 13 13 13 13 13 13 14 13 12 11 10 8 9 9 10 10 11 11 10 12 12 9 10 9 10 10 10 10 9 8 9 10 9 9 8
12 13 13 12 13 12 12 12 12 13 13 13 13 13 13 13 13 13 13 10 10 11 8 9 10 9 10 9 9 9 11 11 11 10 10 9 10 9 9 10 10 10 10 9 9 8 7
12 12 12 13 12 13 13 12 12 12 12 13 13 13 13 13 13 13 12 10 10 11 9 10 9 9 9 9 7 7 8 10 9 10 9 10 8 9 10 9 10 9 9 9 8 7 6
12 12 12 12 12 13 13 12 12 12 12 12 12 12 13 13 13 11 10 10 10 11 10 11 10 9 9 9 8 8 8 9 8 9 8 7 8 9 8 9 8 10 7 7 7 6 7
12 12 12 11 11 12 12 12 12 12 12 12 12 13 13 12 12 10 10 10 10 11 13 10 9 10 9 9 8 9 9 9 9 8 9 9 8 8 9 7 7 8 6 6 6 5 4
12 12 12 12 11 12 12 12 12 12 12 12 12 12 12 12 12 10 10 10 10 12 11 11 9 9 10 8 8 8 9 8 7 8 6 6 6 6 6 5 6 6 6 5 2 3 2
12 12 12 12 11 11 11 12 12 11 11 11 12 12 12 11 9 10 10 9 11 13 11 11 10 9 9 8 9 7 8 8 8 9 10 7 6 6 6 7 6 7 6 6 7 4 7
12 12 12 12 11 11 11 11 11 11 11 11 11 11 10 10 10 10 10 11 14 13 12 9 9 9 9 7 8 7 8 8 7 7 6 7 9 6 5 6 7 6 6 6 8 6 5
12 12 12 11 11 11 11 11 10 10 10 10 10 11 10 9 10 10 9 11 12 12 11 9 9 11 10 8 8 8 8 7 7 7 6 4 9 4 4 4 5 5 6 5 3 1 0
11 12 12 12 11 11 10 10 10 8 9 10 11 10 8 9 10 10 9 12 11 10 9 10 12 11 11 9 9 8 9 7 7 5 5 4 4 3 4 5 4 5 4 5 4 5 5
12 11 12 11 11 11 11 10 9 8 9 10 10 8 8 9 10 7 10 9 10 8 10 10 11 10 10 10 8 8 8 6 6 6 6 4 4 5 4 3 4 3 2 1 1 2 3
12 11 11 11 11 12 12 11 9 8 7 7 8 9 8 9 9 4 7 9 9 8 8 8 9 9 9 7 8 7 8 7 3 5 4 3 -2 2 5 -0 1 2 0 -1 2 2 -3
11 11 11 11 11 12 11 11 10 8 7 8 6 5 8 9 9 7 8 8 8 8 8 8 8 8 7 7 6 6 6 3 3 5 4 1 0 1 4 -0 -1 -0 -2 -4 -3 -4 -1
11 11 11 11 12 12 11 11 10 8 7 8 5 7 6 6 5 9 8 8 8 6 7 7 6 6 5 6 3 3 5 3 2 4 5 3 -5 3 7 6 -1 -1 0 1 3 1 1
11 11 11 11 11 11 11 10 10 9 8 7 6 7 6 6 6 7 8 7 7 7 6 6 6 5 4 3 5 4 4 3 2 2 -0 -1 -0 -3 -3 -5 -3 1 1 -0 1 4 3
10 9 9 9 10 10 11 10 9 8 6 8 6 5 3 2 4 5 6 6 6 5 5 5 4 3 1 3 4 3 0 -1 1 -1 -3 -5 -2 -6 -5 -3 -3 -2 -2 -1 1 2 2
10 8 8 8 8 9 9 10 9 7 7 6 4 5 6 4 3 5 5 5 5 6 4 4 3 2 1 3 -2 -2 -5 -6 -3 0 0 -1 -4 -4 -1 -7 -6 -1 -2 0 -3 -5 -1
10 9 8 8 7 7 9 9 9 8 8 8 7 6 5 5 4 5 5 6 6 6 4 2 3 2 -1 -5 -5 -5 -8 -8 -8 -5 -3 -2 -1 -0 -3 -6 -1 0 -12 -7 -3 -6 -7
9 8 8 8 7 7 8 9 9 8 7 8 8 7 4 5 4 5 5 4 2 3 0 1 -2 -3 -3 -1 2 -2 -3 -4 -9 -8 -5 -5 -1 -2 -3 -8 -2 -3 -7 -7 -4 -4 -16
8 8 8 8 9 8 8 8 8 6 6 8 6 7 5 4 4 3 3 3 4 3 -1 -3 -5 -4 -2 0 1 1 1 -1 -4 -8 -8 -6 -6 -0 -4 -3 -2 -3 -9 -17 -14 -5 -14
7 7 8 9 9 8 7 8 7 5 6 7 6 7 7 2 -3 -1 4 4 1 -3 -5 -6 -6 -3 -4 -0 1 -1 -0 -7 -1 -4 -7 -6 -5 -2 -1 -1 -3 -8 -12 -17 -4 -2 -13
7 7 7 8 8 7 7 7 7 6 6 6 5 6 6 1 -4 -5 -4 -1 -3 -4 1 -7 -3 -6 -3 -1 -2 -3 -7 -6 -7 -9 -8 -6 -5 -5 -4 -2 -3 -10 -11 -3 -10 -16 -16
7 7 7 7 7 7 7 7 7 5 5 6 4 5 6 -1 -6 -7 -7 -7 -6 -5 -3 -5 -3 -8 -3 -5 -6 -6 -5 -8 -7 -2 -11 -3 -4 -4 -2 -3 -14 -17 -14 -17 -17 -15 -15
Height
822 822 822 822 823 822 822 822 820 819 819 818 818 817 817 817 817 817 818 818 817 816 815 813 811 810 810 814 822 818 815 812 811 810 810 810 813 817 828 835 836 841 849 854 857 858 863
821 822 822 822 823 823 823 822 821 820 820 819 818 818 818 818 819 819 819 819 818 817 815 814 812 811 811 820 822 819 816 814 812 811 812 811 815 818 831 841 841 850 852 855 857 860 862
820 821 821 822 823 823 823 823 822 821 821 820 819 819 819 819 820 820 820 820 819 818 816 815 813 812 816 825 822 820 818 816 814 813 814 815 815 818 831 843 847 848 850 851 855 856 861
819 820 821 822 822 823 823 823 823 822 821 820 819 819 819 819 820 820 821 820 819 818 816 816 815 814 824 824 822 820 818 817 817 816 816 818 818 824 834 842 846 849 852 848 854 856 864
818 819 820 821 822 822 823 823 822 822 821 820 819 819 820 820 820 821 821 820 819 818 817 816 816 815 826 825 825 824 822 821 818 817 818 818 819 835 839 847 854 862 851 857 852 857 862
816 817 818 819 821 821 822 823 822 822 821 821 820 819 820 820 821 821 820 820 820 819 818 817 818 821 828 833 829 827 825 823 822 820 821 825 835 845 851 850 849 850 856 860 859 859 863
815 815 817 818 819 821 821 822 822 822 821 821 821 820 820 820 820 820 820 820 824 824 825 836 836 835 834 832 830 829 827 825 825 830 837 839 842 846 847 849 852 859 859 856 857 858 861
813 814 815 816 817 819 820 821 821 821 821 821 821 821 821 820 820 820 820 822 826 828 839 836 836 835 835 834 834 832 830 830 832 841 840 847 846 854 852 852 852 854 856 862 859 861 866
810 812 813 814 816 817 819 820 821 820 821 821 821 821 821 821 821 821 821 825 826 827 835 839 838 838 838 837 842 841 836 836 840 842 850 845 858 854 852 855 855 860 861 862 865 867 866
807 809 811 813 814 815 817 818 819 820 819 821 821 821 820 821 824 823 824 825 826 826 839 841 840 841 841 840 843 841 839 841 845 848 854 859 858 854 858 857 862 858 870 867 868 878 874
803 805 807 812 813 813 815 817 818 819 819 819 821 821 820 820 821 823 826 826 826 827 841 846 843 842 842 844 847 844 842 840 845 851 852 851 858 856 855 863 865 862 869 869 872 879 887
798 800 803 807 810 811 813 815 817 818 819 819 820 820 820 821 821 823 824 826 827 832 845 840 845 846 843 848 848 847 844 844 852 854 860 865 865 867 870 873 870 872 871 879 890 892 909
791 796 799 803 806 808 810 812 815 817 818 819 820 821 821 821 823 824 824 827 834 833 840 840 843 847 848 854 849 853 852 852 854 855 852 864 870 870 869 869 872 870 872 877 872 889 865
784 790 795 798 801 804 807 809 812 816 817 819 820 821 821 821 823 824 826 829 826 829 834 847 846 848 848 857 852 855 853 856 858 859 872 869 857 873 875 874 871 875 875 877 870 878 877
777 782 788 793 796 799 802 805 808 814 815 818 820 821 821 823 823 824 829 835 828 830 836 844 849 842 849 855 856 854 856 860 860 862 873 887 859 881 880 880 878 881 880 882 893 909 914
770 775 780 785 790 793 796 800 804 809 814 817 819 822 824 823 823 825 832 828 832 835 841 839 831 841 839 849 851 854 852 862 861 866 867 880 884 887 881 879 883 880 886 883 891 890 881
760 766 772 778 783 787 791 795 800 806 811 816 818 822 824 824 823 830 833 838 836 840 838 837 837 840 846 848 856 855 856 864 863 864 864 874 881 879 881 881 874 887 894 900 901 903 897
753 758 765 769 776 781 784 789 794 800 809 813 817 821 823 823 830 845 841 835 837 840 841 841 842 842 847 857 856 860 857 860 870 865 873 876 901 894 869 891 887 883 894 901 898 896 924
749 751 759 763 770 774 778 783 789 794 801 810 817 824 824 822 830 841 837 836 838 840 841 842 845 846 851 853 866 861 860 871 870 866 871 881 895 899 872 895 895 894 900 905 907 919 905
746 750 754 758 764 768 772 775 783 789 796 803 814 822 827 825 832 826 834 837 839 844 844 845 851 852 857 857 869 870 863 872 873 869 867 874 910 875 853 854 889 895 885 884 874 893 876
745 748 751 756 760 763 768 774 779 786 793 802 807 813 816 830 830 830 827 833 837 842 846 847 851 850 858 869 862 865 867 872 876 876 882 886 894 902 895 898 888 868 869 880 872 850 859
743 747 752 755 759 762 766 768 776 784 794 801 805 812 820 833 829 833 833 835 837 844 844 849 855 855 865 864 858 868 876 885 873 883 892 899 898 912 907 889 885 872 875 868 856 848 849
740 746 749 754 759 760 763 766 772 780 791 795 803 803 805 829 835 832 829 831 833 834 844 845 851 856 866 860 871 874 880 884 879 876 880 888 905 907 890 909 905 870 849 843 856 864 847
740 744 748 752 755 758 762 766 770 777 786 789 792 802 810 821 830 826 826 826 830 833 838 850 851 854 865 868 872 877 885 890 892 891 887 889 890 890 903 909 886 838 876 861 848 859 859
740 746 747 750 751 755 760 766 771 777 784 788 792 796 803 821 824 827 826 829 838 839 850 854 865 868 865 865 862 880 883 886 902 900 892 892 885 893 899 934 861 847 861 865 854 847 878
742 744 745 746 747 751 758 763 772 778 783 787 791 794 796 812 822 822 829 832 833 840 857 865 869 870 869 864 863 869 867 871 887 904 901 895 893 875 901 895 879 847 862 878 877 857 868
743 743 744 743 745 748 755 764 771 776 781 788 790 793 796 813 826 825 824 825 835 849 862 870 871 872 872 866 865 877 871 896 871 885 902 900 897 874 870 866 857 853 864 876 862 837 862
740 741 741 742 747 752 758 765 769 776 782 788 793 796 798 810 827 826 828 832 839 844 839 869 867 876 873 867 870 875 896 887 892 894 891 883 883 890 883 874 864 854 866 845 853 866 865
735 739 743 745 751 757 761 763 770 778 782 788 794 797 798 803 829 832 832 835 835 833 839 857 852 861 853 868 876 877 876 888 886 860 890 866 854 858 847 840 862 864 863 864 863 863 865
Wind_Speed
6 6 5 4 2 2 3 5 6 7 7 7 7 9 10 10 10 11 10 7 6 8 10 10 10 7 3 6 3 14 15 12 8 6 9 3 4 4 5 5 3 4 2 5 5 8 6
7 6 5 4 4 2 2 4 6 6 6 6 6 6 7 7 8 9 8 7 7 7 9 9 10 7 3 5 6 14 13 12 11 9 8 7 3 5 6 4 4 2 6 4 4 4 3
7 7 7 6 4 3 2 3 4 5 5 5 5 4 4 6 6 4 4 8 7 7 8 7 8 5 8 1 8 13 11 11 11 9 4 5 5 5 5 5 5 3 4 3 2 2 2
8 8 8 7 6 4 2 2 2 3 4 4 4 3 3 3 4 3 4 8 7 8 5 6 6 3 3 6 5 13 10 6 8 9 7 9 14 8 5 5 5 4 4 1 1 3 1
10 9 8 8 8 6 4 2 1 2 3 3 3 3 3 3 2 1 5 5 8 6 4 4 3 4 2 4 6 14 12 7 7 5 10 8 6 4 3 4 4 6 1 1 5 4 3
11 10 9 9 9 8 6 4 2 1 2 3 3 3 3 2 1 2 4 5 5 2 3 3 7 3 7 4 7 12 9 9 5 3 5 8 5 4 3 3 4 3 2 3 4 1 1
13 12 11 10 10 9 8 6 4 1 1 2 2 3 3 2 1 2 4 2 4 5 14 4 2 3 2 10 4 12 13 6 4 9 3 4 5 1 3 2 3 5 2 3 3 2 3
16 14 12 11 10 11 9 7 5 2 0 1 2 3 3 2 2 3 3 6 3 4 6 6 2 3 3 6 4 13 14 5 5 3 3 5 1 2 3 2 2 1 1 4 3 1 3
18 16 15 13 12 11 11 9 6 4 2 1 2 2 1 2 3 5 9 7 5 4 5 3 2 3 4 5 3 6 7 2 5 3 4 4 1 2 3 2 0 0 3 2 4 4 2
20 18 17 16 14 12 11 11 8 6 4 3 3 2 1 3 3 4 3 5 3 2 4 6 5 5 3 1 4 3 5 2 6 3 3 4 2 2 4 2 2 3 2 1 2 4 3
25 22 19 18 16 14 12 12 10 8 5 4 3 1 2 4 7 3 4 4 2 1 3 4 4 3 3 5 3 7 4 5 3 3 2 1 1 2 2 2 1 3 1 2 2 3 3
29 25 23 21 18 15 13 12 12 9 6 4 3 3 4 5 4 6 6 4 1 4 3 2 2 4 3 5 4 5 4 6 3 3 4 3 1 4 2 2 2 3 1 3 3 2 1
33 30 27 25 22 18 15 13 12 11 8 6 4 4 4 3 4 6 6 2 4 4 1 1 2 3 2 4 3 5 4 4 2 3 3 2 2 1 2 2 3 3 3 4 5 3 5
36 34 30 29 26 22 19 17 14 12 10 9 6 5 7 7 6 5 2 3 1 2 2 1 2 2 2 4 2 4 2 3 2 3 2 2 3 1 4 2 0 1 1 3 5 3 4
39 37 34 32 29 28 24 20 19 15 12 10 9 6 4 4 4 4 3 3 3 3 4 6 2 2 1 1 2 3 1 1 0 1 4 3 1 2 4 3 2 1 1 1 0 1 3
41 40 37 34 31 29 28 24 22 18 15 13 7 4 3 2 2 2 4 3 3 2 5 2 2 1 1 1 2 4 1 0 2 2 2 1 4 2 2 0 3 2 1 2 2 4 6
45 42 40 35 35 33 30 28 25 22 18 14 5 3 1 0 5 4 3 4 2 2 1 2 2 3 2 0 0 1 1 1 1 1 3 4 3 2 1 6 6 3 1 2 2 3 4
41 39 42 37 38 34 33 32 30 28 23 15 2 2 1 5 3 0 3 4 2 2 1 2 3 2 5 5 3 3 3 2 3 1 4 1 4 3 7 3 2 1 6 5 4 5 2
34 34 33 32 27 29 32 32 32 33 33 11 4 2 3 1 3 2 2 2 1 3 3 3 3 1 1 4 1 3 2 1 1 2 5 4 1 3 6 4 5 3 4 4 4 3 7
21 24 23 25 26 30 33 36 35 35 35 13 3 3 2 3 1 4 5 3 3 3 2 4 3 3 3 3 2 3 4 1 2 1 4 2 2 7 9 6 4 4 5 6 6 3 5
25 26 26 23 22 18 27 35 36 37 34 8 1 2 2 3 3 4 4 6 5 4 1 2 1 4 5 3 0 4 1 1 2 4 3 3 5 2 4 4 5 12 9 9 14 20 10
21 22 23 22 22 21 27 35 40 33 33 4 4 4 3 2 3 6 1 6 8 3 5 3 3 1 3 5 6 6 6 4 6 3 2 3 3 2 5 6 7 11 8 16 21 21 18
19 19 19 20 19 21 28 37 39 36 31 5 2 4 4 4 2 4 5 6 8 8 2 3 5 4 2 4 2 2 3 4 2 6 5 3 3 3 6 4 6 10 11 15 5 4 9
16 16 16 19 19 22 32 35 35 34 31 7 6 5 4 2 2 4 5 6 6 5 6 3 3 5 3 7 6 4 7 7 7 4 4 5 4 1 4 5 4 5 2 2 8 4 7
14 15 15 17 21 22 27 38 33 34 30 8 12 5 3 3 2 1 5 4 5 4 4 4 3 3 6 2 2 5 3 4 4 3 1 1 4 2 2 3 9 5 2 4 5 6 4
13 13 13 15 17 22 29 39 33 40 30 9 11 6 4 6 6 4 5 4 4 3 2 3 3 3 1 2 2 4 4 3 3 2 3 1 2 4 3 3 7 5 3 4 3 5 6
12 10 12 12 16 22 27 38 35 37 31 12 8 7 5 3 1 1 3 3 5 4 4 2 2 2 2 2 3 4 4 2 3 6 6 3 2 12 10 6 9 4 4 4 5 5 4
10 9 12 13 13 20 26 33 33 28 25 14 8 6 3 3 1 5 3 4 3 1 4 4 3 1 1 3 3 4 3 4 0 3 6 8 8 5 4 5 11 6 3 8 3 2 3
13 11 11 15 16 20 26 26 27 30 27 15 5 8 7 11 3 6 10 7 2 3 5 4 0 5 5 3 1 2 2 2 3 4 3 3 6 5 10 7 2 2 1 1 2 4 3
Wind_Direction
200 199 189 167 149 108 75 56 60 55 57 63 71 77 89 100 100 99 94 73 29 16 12 10 7 3 10 49 24 352 6 21 40 53 49 47 57 111 96 101 76 67 91 53 69 74 82
200 203 200 189 176 159 93 60 60 59 59 70 75 85 96 110 113 104 80 46 17 7 6 9 7 10 31 74 348 356 3 32 47 54 45 44 93 89 90 67 69 78 92 114 49 77 93
204 204 201 204 194 183 131 77 59 61 61 63 82 98 113 128 143 126 58 9 359 354 358 8 13 37 56 124 359 3 11 31 33 43 65 41 113 77 130 94 159 117 71 109 99 133 104
208 207 206 205 201 197 168 121 77 58 62 62 76 102 127 146 172 211 322 346 1 344 355 1 19 46 91 7 10 18 22 40 48 54 81 69 93 93 65 114 43 62 59 60 157 133 354
211 209 211 210 206 199 192 184 114 60 43 45 60 113 130 146 152 267 323 338 357 8 26 12 23 69 64 6 24 2 4 353 358 54 57 77 70 82 61 82 39 18 246 248 317 194 138
216 213 212 212 211 200 199 195 177 65 38 30 59 118 132 153 205 319 333 318 20 82 27 47 46 57 19 321 331 345 357 7 15 354 26 38 48 76 49 82 231 201 232 257 255 213 188
223 217 215 213 212 208 203 200 191 174 50 33 78 101 120 126 97 355 354 99 21 356 37 85 304 118 328 332 346 8 357 355 24 45 58 8 74 213 239 134 112 122 173 254 240 212 211
225 222 218 216 211 212 207 207 199 190 158 80 126 106 96 108 76 12 38 81 109 137 80 31 53 53 42 353 9 350 5 59 53 71 349 26 78 33 77 81 82 103 279 271 276 158 189
228 224 222 217 215 211 208 207 207 195 178 120 138 154 73 115 113 66 85 109 113 124 85 6 43 42 324 24 83 323 10 7 65 71 23 113 7 353 60 57 33 303 227 281 269 325 244
229 226 226 223 215 210 211 205 205 202 180 164 140 111 94 155 143 112 70 132 127 138 80 345 349 8 349 37 45 325 18 78 38 111 80 89 305 86 70 83 94 296 353 4 353 30 269
228 224 222 225 220 211 208 208 203 202 195 187 205 173 71 170 136 107 135 148 151 156 17 352 354 327 8 66 314 3 1 20 93 118 109 136 105 116 127 163 338 210 39 87 79 105 29
228 225 220 220 219 213 209 208 204 201 192 185 193 173 150 117 100 122 137 147 140 45 267 22 339 359 12 18 12 321 32 54 133 84 45 70 17 31 61 55 36 138 42 64 60 91 359
226 224 220 216 215 212 208 205 208 205 189 179 154 161 158 136 125 141 145 110 36 128 76 58 38 29 88 355 9 30 24 30 59 35 19 86 33 21 89 92 21 42 36 324 342 358 237
221 222 220 217 213 212 211 206 209 209 190 183 174 146 103 104 125 144 151 55 189 145 186 105 97 60 74 348 21 3 54 34 31 79 99 108 330 38 355 51 7 93 90 163 259 259 280
220 219 222 218 223 216 214 210 201 208 190 179 155 140 108 84 124 154 84 63 214 185 134 143 118 104 15 305 298 21 74 156 150 149 146 93 304 21 34 355 25 119 183 163 14 222 11
219 218 220 223 223 219 213 209 204 195 188 172 160 118 38 94 119 116 79 231 179 104 124 143 150 122 204 280 344 14 46 50 80 57 133 195 359 20 300 271 42 132 238 69 23 312 298
221 217 219 223 230 223 219 209 199 185 180 169 161 98 358 76 119 52 160 212 142 60 40 129 178 143 144 122 103 314 312 59 1 121 120 130 112 257 276 199 178 142 234 53 118 167 215
223 218 219 224 230 227 224 211 201 185 167 167 147 149 13 160 70 19 148 177 128 146 65 109 103 134 174 157 162 235 221 169 352 147 135 45 147 231 232 55 21 118 189 152 137 256 210
230 220 222 217 226 226 226 213 202 189 172 155 132 118 0 17 151 204 143 98 82 154 182 133 135 100 95 163 75 204 204 172 280 134 165 195 309 345 317 5 351 205 209 146 119 87 210
221 220 220 224 228 233 224 208 208 191 167 153 144 112 353 51 3 143 138 195 182 11 80 73 110 82 86 163 28 198 231 172 346 127 121 105 117 192 242 242 125 186 187 202 172 193 247
208 215 215 211 220 209 210 208 209 197 171 168 357 156 159 178 234 156 136 151 157 189 45 170 81 199 166 157 55 221 210 60 36 355 53 107 217 213 278 232 214 239 211 191 206 229 228
212 214 215 212 216 206 205 204 200 192 168 190 139 138 50 90 103 104 160 194 186 174 149 228 181 94 158 163 188 211 152 196 214 39 100 3 268 73 285 287 260 274 226 225 234 250 249
202 206 207 202 202 198 201 201 197 186 169 131 161 81 113 138 136 127 194 187 201 155 134 73 156 119 146 234 115 128 85 68 147 153 171 149 133 31 272 317 327 294 243 211 204 206 207
199 206 206 205 201 195 197 203 193 191 181 152 134 151 99 155 171 203 174 171 176 196 139 143 127 135 153 116 114 72 57 69 61 42 34 144 144 207 278 348 300 269 330 123 226 235 242
193 201 203 208 202 196 197 200 197 192 188 178 158 143 122 137 154 149 151 124 91 69 65 99 42 4 146 119 65 354 336 20 9 22 71 89 148 226 240 215 300 306 288 141 163 278 191
191 197 210 209 204 198 194 198 202 180 184 150 140 126 106 122 218 129 130 173 135 134 104 80 44 20 327 82 109 213 233 222 263 341 359 98 55 190 129 221 243 225 226 181 137 286 177
186 191 179 180 181 183 189 194 192 182 184 158 133 126 108 109 312 89 160 154 114 90 101 117 146 133 343 131 175 192 246 174 246 186 171 140 204 216 219 246 278 221 159 145 93 255 149
169 165 165 167 169 168 177 188 190 189 187 176 147 139 134 89 44 17 47 130 84 120 146 153 122 309 100 175 164 215 177 225 65 184 184 169 161 194 180 220 273 141 91 176 174 12 143
149 152 150 162 173 180 176 178 184 188 188 172 126 139 104 76 100 71 76 76 72 113 120 177 97 170 166 109 214 115 214 146 176 261 330 263 196 190 191 214 230 245 140 292 163 135 188